Time,TemperatureF,DewpointF,PressureIn,WindDirection,WindDirectionDegrees,WindSpeedMPH,WindSpeedGustMPH,Humidity,HourlyPrecipIn,Conditions,Clouds,dailyrainin,SoftwareType,DateUTC
2013-09-11 00:02:00,66.7,61.2,29.16,SSW,202,0.0,0.0,82,0.00,,,0.00,meteohub,2013-09-11 05:02:00,
2013-09-11 00:07:00,66.7,61.2,29.16,SSW,202,0.0,0.0,82,0.00,,,0.00,meteohub,2013-09-11 05:07:00,
2013-09-11 00:12:00,66.6,61.0,29.16,SSW,202,0.0,0.0,82,0.00,,,0.00,meteohub,2013-09-11 05:12:00,
2013-09-11 00:17:00,66.6,61.2,29.16,SSW,202,0.0,0.0,83,0.00,,,0.00,meteohub,2013-09-11 05:17:00,
2013-09-11 00:22:00,66.2,60.8,29.16,SSW,202,0.0,0.0,83,0.00,,,0.00,meteohub,2013-09-11 05:22:00,
2013-09-11 00:27:00,66.0,61.0,29.16,SSW,202,0.0,0.0,84,0.00,,,0.00,meteohub,2013-09-11 05:27:00,
2013-09-11 00:32:00,65.7,60.6,29.16,SSW,202,0.0,0.0,84,0.00,,,0.00,meteohub,2013-09-11 05:32:00,
2013-09-11 00:37:00,65.7,60.6,29.16,SSW,202,0.0,0.0,84,0.00,,,0.00,meteohub,2013-09-11 05:37:00,
2013-09-11 00:42:00,65.7,60.6,29.16,SSW,202,0.0,-999.0,84,0.00,,,0.00,meteohub,2013-09-11 05:42:00,
2013-09-11 00:47:00,65.5,60.8,29.16,SSW,202,0.0,-999.0,85,0.00,,,0.00,meteohub,2013-09-11 05:47:00,
2013-09-11 00:52:00,65.5,60.8,29.16,SSW,202,0.0,-999.0,85,0.00,,,0.00,meteohub,2013-09-11 05:52:00,
2013-09-11 00:57:00,65.5,60.8,29.16,SSW,202,0.0,-999.0,85,0.00,,,0.00,meteohub,2013-09-11 05:57:00,
2013-09-11 01:02:00,65.5,60.8,29.16,SSW,202,0.0,-999.0,85,0.00,,,0.00,meteohub,2013-09-11 06:02:00,
2013-09-11 01:07:00,65.3,60.6,29.16,SSW,202,0.0,-999.0,85,0.00,,,0.00,meteohub,2013-09-11 06:07:00,
2013-09-11 01:12:00,65.3,61.0,29.16,SSW,202,0.0,-999.0,86,0.00,,,0.00,meteohub,2013-09-11 06:12:00,
2013-09-11 01:17:00,65.5,60.8,29.16,SSW,202,0.0,-999.0,85,0.00,,,0.00,meteohub,2013-09-11 06:17:00,
2013-09-11 01:22:00,65.3,60.6,29.19,SSW,202,0.0,-999.0,85,0.00,,,0.00,meteohub,2013-09-11 06:22:00,
2013-09-11 01:27:00,65.3,61.0,29.19,SSW,202,0.0,-999.0,86,0.00,,,0.00,meteohub,2013-09-11 06:27:00,
2013-09-11 01:32:00,65.3,61.3,29.19,SSW,202,0.0,-999.0,87,0.00,,,0.00,meteohub,2013-09-11 06:32:00,
2013-09-11 01:37:00,65.1,60.8,29.16,SSW,202,0.0,-999.0,86,0.00,,,0.00,meteohub,2013-09-11 06:37:00,
2013-09-11 01:42:00,65.1,61.2,29.16,SSW,202,0.0,-999.0,87,0.00,,,0.00,meteohub,2013-09-11 06:42:00,
2013-09-11 01:47:00,65.1,61.2,29.16,SSW,202,0.0,-999.0,87,0.00,,,0.00,meteohub,2013-09-11 06:47:00,
2013-09-11 01:52:00,65.1,61.5,29.16,SSW,202,0.0,-999.0,88,0.00,,,0.00,meteohub,2013-09-11 06:52:00,
2013-09-11 01:57:00,65.1,61.5,29.16,SSW,202,0.0,-999.0,88,0.00,,,0.00,meteohub,2013-09-11 06:57:00,
2013-09-11 02:02:00,65.1,61.5,29.16,SSW,202,0.0,-999.0,88,0.00,,,0.00,meteohub,2013-09-11 07:02:00,
2013-09-11 02:07:00,65.1,61.5,29.16,SSW,202,0.0,-999.0,88,0.00,,,0.00,meteohub,2013-09-11 07:07:00,
2013-09-11 02:12:00,65.1,61.5,29.16,SSW,202,0.0,-999.0,88,0.00,,,0.00,meteohub,2013-09-11 07:12:00,
2013-09-11 02:17:00,65.1,61.5,29.16,SSW,202,0.0,-999.0,88,0.00,,,0.00,meteohub,2013-09-11 07:17:00,
2013-09-11 02:22:00,65.3,61.3,29.16,SSW,202,0.0,-999.0,87,0.00,,,0.00,meteohub,2013-09-11 07:22:00,
2013-09-11 02:27:00,65.3,61.3,29.16,SSW,202,0.0,-999.0,87,0.00,,,0.00,meteohub,2013-09-11 07:27:00,
2013-09-11 02:32:00,65.3,61.0,29.16,SSW,202,0.0,-999.0,86,0.00,,,0.00,meteohub,2013-09-11 07:32:00,
2013-09-11 02:37:00,65.3,61.0,29.16,SSW,202,0.0,-999.0,86,0.00,,,0.00,meteohub,2013-09-11 07:37:00,
2013-09-11 02:42:00,65.5,61.2,29.16,SSW,202,0.0,-999.0,86,0.00,,,0.00,meteohub,2013-09-11 07:42:00,
2013-09-11 02:47:00,65.5,61.2,29.16,SSW,202,0.0,-999.0,86,0.00,,,0.00,meteohub,2013-09-11 07:47:00,
2013-09-11 02:52:00,65.5,60.8,29.16,SSW,202,0.0,-999.0,85,0.00,,,0.00,meteohub,2013-09-11 07:52:00,
2013-09-11 02:57:00,65.7,61.3,29.16,SSW,202,0.0,-999.0,86,0.00,,,0.00,meteohub,2013-09-11 07:57:00,
2013-09-11 03:02:00,65.7,61.0,29.16,SSW,202,0.0,-999.0,85,0.00,,,0.00,meteohub,2013-09-11 08:02:00,
2013-09-11 03:07:00,65.7,61.0,29.16,SSW,202,0.0,-999.0,85,0.00,,,0.00,meteohub,2013-09-11 08:07:00,
2013-09-11 03:12:00,65.7,61.0,29.16,SSW,202,0.0,-999.0,85,0.00,,,0.00,meteohub,2013-09-11 08:12:00,
2013-09-11 03:17:00,65.7,61.0,29.16,SSW,202,0.0,-999.0,85,0.00,,,0.00,meteohub,2013-09-11 08:17:00,
2013-09-11 03:22:00,65.5,60.8,29.16,SSW,202,0.0,-999.0,85,0.00,,,0.00,meteohub,2013-09-11 08:22:00,
2013-09-11 03:27:00,65.5,61.2,29.16,SSW,202,0.0,-999.0,86,0.00,,,0.00,meteohub,2013-09-11 08:27:00,
2013-09-11 03:32:00,65.3,61.0,29.16,SSW,202,0.0,-999.0,86,0.00,,,0.00,meteohub,2013-09-11 08:32:00,
2013-09-11 03:37:00,64.9,60.6,29.16,SSW,202,0.0,-999.0,86,0.00,,,0.00,meteohub,2013-09-11 08:37:00,
2013-09-11 03:42:00,64.8,61.2,29.16,SSW,202,0.0,-999.0,88,0.00,,,0.00,meteohub,2013-09-11 08:42:00,
2013-09-11 03:47:00,64.4,61.2,29.16,SSW,202,0.0,-999.0,89,0.00,,,0.00,meteohub,2013-09-11 08:47:00,
2013-09-11 03:52:00,64.2,61.2,29.16,SSW,202,0.0,-999.0,90,0.00,,,0.00,meteohub,2013-09-11 08:52:00,
2013-09-11 03:57:00,64.0,61.3,29.16,SSW,202,0.0,-999.0,91,0.00,,,0.00,meteohub,2013-09-11 08:57:00,
2013-09-11 04:02:00,64.0,61.3,29.16,SSW,202,0.0,-999.0,91,0.00,,,0.00,meteohub,2013-09-11 09:02:00,
2013-09-11 04:07:00,64.0,61.7,29.16,SSW,202,0.0,-999.0,92,0.00,,,0.00,meteohub,2013-09-11 09:07:00,
2013-09-11 04:12:00,63.9,61.2,29.16,SSW,202,0.0,-999.0,91,0.00,,,0.00,meteohub,2013-09-11 09:12:00,
2013-09-11 04:17:00,63.7,61.0,29.16,SSW,202,0.0,-999.0,91,0.00,,,0.00,meteohub,2013-09-11 09:17:00,
2013-09-11 04:22:00,63.5,60.8,29.16,SSW,202,0.0,-999.0,91,0.00,,,0.00,meteohub,2013-09-11 09:22:00,
2013-09-11 04:27:00,63.7,61.0,29.16,SSW,202,0.0,-999.0,91,0.00,,,0.00,meteohub,2013-09-11 09:27:00,
2013-09-11 04:32:00,63.7,61.0,29.16,SSW,202,0.0,-999.0,91,0.00,,,0.00,meteohub,2013-09-11 09:32:00,
2013-09-11 04:37:00,63.9,60.8,29.16,SSW,202,0.0,-999.0,90,0.00,,,0.00,meteohub,2013-09-11 09:37:00,
2013-09-11 04:42:00,63.9,60.8,29.16,SSW,202,0.0,-999.0,90,0.00,,,0.00,meteohub,2013-09-11 09:42:00,
2013-09-11 04:47:00,63.9,60.8,29.16,SSW,202,0.0,-999.0,90,0.00,,,0.00,meteohub,2013-09-11 09:47:00,
2013-09-11 04:52:00,64.0,61.0,29.16,SW,225,0.0,0.0,90,0.00,,,0.00,meteohub,2013-09-11 09:52:00,
2013-09-11 04:57:00,64.0,61.0,29.16,SW,225,0.0,0.0,90,0.00,,,0.00,meteohub,2013-09-11 09:57:00,
2013-09-11 05:02:00,64.0,61.0,29.16,SW,225,0.0,0.0,90,0.00,,,0.00,meteohub,2013-09-11 10:02:00,
2013-09-11 05:07:00,63.9,60.8,29.16,SW,225,0.0,0.0,90,0.00,,,0.00,meteohub,2013-09-11 10:07:00,
2013-09-11 05:12:00,63.7,60.6,29.16,SW,225,0.0,0.0,90,0.00,,,0.00,meteohub,2013-09-11 10:12:00,
2013-09-11 05:17:00,63.3,60.3,29.16,SW,225,0.0,0.0,90,0.00,,,0.00,meteohub,2013-09-11 10:17:00,
2013-09-11 05:22:00,63.1,60.1,29.16,SW,225,0.0,0.0,90,0.00,,,0.00,meteohub,2013-09-11 10:22:00,
2013-09-11 05:27:00,63.1,60.4,29.16,SW,225,0.0,-999.0,91,0.00,,,0.00,meteohub,2013-09-11 10:27:00,
2013-09-11 05:32:00,63.0,60.3,29.16,SW,225,0.0,-999.0,91,0.00,,,0.00,meteohub,2013-09-11 10:32:00,
2013-09-11 05:37:00,62.8,60.1,29.16,SW,225,0.0,-999.0,91,0.00,,,0.00,meteohub,2013-09-11 10:37:00,
2013-09-11 05:42:00,62.8,60.4,29.13,SW,225,0.0,-999.0,92,0.00,,,0.00,meteohub,2013-09-11 10:42:00,
2013-09-11 05:47:00,62.6,60.3,29.13,SW,225,0.0,-999.0,92,0.00,,,0.00,meteohub,2013-09-11 10:47:00,
2013-09-11 05:52:00,62.4,60.4,29.13,SW,225,0.0,-999.0,93,0.00,,,0.00,meteohub,2013-09-11 10:52:00,
2013-09-11 05:57:00,62.4,60.4,29.16,SW,225,0.0,-999.0,93,0.00,,,0.00,meteohub,2013-09-11 10:57:00,
2013-09-11 06:02:00,62.2,60.4,29.16,SW,225,0.0,-999.0,94,0.00,,,0.00,meteohub,2013-09-11 11:02:00,
2013-09-11 06:07:00,62.2,60.4,29.16,SW,225,0.0,-999.0,94,0.00,,,0.00,meteohub,2013-09-11 11:07:00,
2013-09-11 06:12:00,62.1,60.3,29.16,SW,225,0.0,-999.0,94,0.00,,,0.00,meteohub,2013-09-11 11:12:00,
2013-09-11 06:17:00,61.9,60.4,29.16,SW,225,0.0,-999.0,95,0.00,,,0.00,meteohub,2013-09-11 11:17:00,
2013-09-11 06:22:00,61.9,60.4,29.16,SW,225,0.0,-999.0,95,0.00,,,0.00,meteohub,2013-09-11 11:22:00,
2013-09-11 06:27:00,61.9,60.4,29.16,SW,225,0.0,-999.0,95,0.00,,,0.00,meteohub,2013-09-11 11:27:00,
2013-09-11 06:32:00,61.7,60.3,29.16,SW,225,0.0,-999.0,95,0.00,,,0.00,meteohub,2013-09-11 11:32:00,
2013-09-11 06:37:00,61.7,60.3,29.16,SW,225,0.0,-999.0,95,0.00,,,0.00,meteohub,2013-09-11 11:37:00,
2013-09-11 06:42:00,61.7,60.6,29.16,SW,225,0.0,-999.0,96,0.00,,,0.00,meteohub,2013-09-11 11:42:00,
2013-09-11 06:47:00,61.5,60.4,29.16,SW,225,0.0,-999.0,96,0.00,,,0.00,meteohub,2013-09-11 11:47:00,
2013-09-11 06:52:00,61.7,60.6,29.16,SW,225,0.0,-999.0,96,0.00,,,0.00,meteohub,2013-09-11 11:52:00,
2013-09-11 06:57:00,61.5,60.4,29.16,SW,225,0.0,-999.0,96,0.00,,,0.00,meteohub,2013-09-11 11:57:00,
2013-09-11 07:02:00,61.7,60.6,29.16,SW,225,0.0,-999.0,96,0.00,,,0.00,meteohub,2013-09-11 12:02:00,
2013-09-11 07:07:00,61.7,60.8,29.16,SW,225,0.0,-999.0,97,0.00,,,0.00,meteohub,2013-09-11 12:07:00,
2013-09-11 07:12:00,61.7,60.8,29.16,SW,225,0.0,-999.0,97,0.00,,,0.00,meteohub,2013-09-11 12:12:00,
2013-09-11 07:17:00,61.7,60.8,29.16,SW,225,0.0,-999.0,97,0.00,,,0.00,meteohub,2013-09-11 12:17:00,
2013-09-11 07:22:00,61.7,60.8,29.16,SW,225,0.0,-999.0,97,0.00,,,0.00,meteohub,2013-09-11 12:22:00,
2013-09-11 07:27:00,61.7,60.8,29.16,SW,225,0.0,-999.0,97,0.00,,,0.00,meteohub,2013-09-11 12:27:00,
2013-09-11 07:32:00,61.7,60.8,29.16,SSW,202,3.0,-999.0,97,0.00,,,0.00,meteohub,2013-09-11 12:32:00,
2013-09-11 07:37:00,61.9,61.0,29.16,SSW,202,0.0,3.0,97,0.00,,,0.00,meteohub,2013-09-11 12:37:00,
2013-09-11 07:42:00,61.9,61.0,29.16,SSW,202,1.0,3.0,97,0.00,,,0.00,meteohub,2013-09-11 12:42:00,
2013-09-11 07:47:00,62.1,61.2,29.16,SSW,202,2.0,3.0,97,0.00,,,0.00,meteohub,2013-09-11 12:47:00,
2013-09-11 07:52:00,62.2,61.3,29.16,SSE,158,3.0,3.0,97,0.00,,,0.00,meteohub,2013-09-11 12:52:00,
2013-09-11 07:57:00,62.4,61.5,29.16,WSW,248,3.0,3.0,97,0.00,,,0.00,meteohub,2013-09-11 12:57:00,
2013-09-11 08:02:00,62.6,61.7,29.16,SW,225,2.0,5.0,97,0.00,,,0.00,meteohub,2013-09-11 13:02:00,
2013-09-11 08:07:00,62.8,61.7,29.16,SW,225,3.0,5.0,96,0.00,,,0.00,meteohub,2013-09-11 13:07:00,
2013-09-11 08:12:00,63.0,62.1,29.16,South,180,3.0,4.0,97,0.00,,,0.00,meteohub,2013-09-11 13:12:00,
2013-09-11 08:17:00,63.1,62.2,29.16,SSW,202,2.0,4.0,97,0.00,,,0.00,meteohub,2013-09-11 13:17:00,
2013-09-11 08:22:00,63.5,62.4,29.16,WSW,248,3.0,4.0,96,0.00,,,0.00,meteohub,2013-09-11 13:22:00,
2013-09-11 08:27:00,63.9,62.8,29.16,SSW,202,4.0,4.0,96,0.00,,,0.00,meteohub,2013-09-11 13:27:00,
2013-09-11 08:32:00,64.2,62.8,29.16,SW,225,0.0,4.0,95,0.00,,,0.00,meteohub,2013-09-11 13:32:00,
2013-09-11 08:37:00,64.6,63.1,29.16,South,180,0.0,4.0,95,0.00,,,0.00,meteohub,2013-09-11 13:37:00,
2013-09-11 08:42:00,64.8,63.0,29.16,South,180,0.0,4.0,94,0.00,,,0.00,meteohub,2013-09-11 13:42:00,
2013-09-11 08:47:00,65.1,63.3,29.16,SSE,158,0.0,4.0,94,0.00,,,0.00,meteohub,2013-09-11 13:47:00,
2013-09-11 08:52:00,65.5,63.3,29.16,South,180,1.0,3.0,93,0.00,,,0.00,meteohub,2013-09-11 13:52:00,
2013-09-11 08:57:00,65.8,63.5,29.16,South,180,2.0,2.0,92,0.00,,,0.00,meteohub,2013-09-11 13:57:00,
2013-09-11 09:02:00,66.4,63.3,29.16,SSW,202,4.0,4.0,90,0.00,,,0.00,meteohub,2013-09-11 14:02:00,
2013-09-11 09:07:00,66.9,63.9,29.16,SW,225,2.0,4.0,90,0.00,,,0.00,meteohub,2013-09-11 14:07:00,
2013-09-11 09:12:00,67.6,62.6,29.16,WSW,248,3.0,4.0,84,0.00,,,0.00,meteohub,2013-09-11 14:12:00,
2013-09-11 09:17:00,68.2,61.3,29.16,West,270,4.0,4.0,79,0.00,,,0.00,meteohub,2013-09-11 14:17:00,
2013-09-11 09:22:00,68.7,61.9,29.16,SSW,202,3.0,9.0,79,0.00,,,0.00,meteohub,2013-09-11 14:22:00,
2013-09-11 09:27:00,69.3,61.3,29.16,WSW,248,5.0,9.0,76,0.00,,,0.00,meteohub,2013-09-11 14:27:00,
2013-09-11 09:32:00,69.6,61.7,29.16,South,180,3.0,6.0,76,0.00,,,0.00,meteohub,2013-09-11 14:32:00,
2013-09-11 09:37:00,70.0,61.3,29.16,SW,225,4.0,6.0,74,0.00,,,0.00,meteohub,2013-09-11 14:37:00,
2013-09-11 09:42:00,70.5,61.5,29.16,SW,225,0.0,6.0,73,0.00,,,0.00,meteohub,2013-09-11 14:42:00,
2013-09-11 09:47:00,70.9,61.0,29.16,SSW,202,2.0,5.0,71,0.00,,,0.00,meteohub,2013-09-11 14:47:00,
2013-09-11 09:52:00,71.2,60.6,29.16,WSW,248,4.0,5.0,69,0.00,,,0.00,meteohub,2013-09-11 14:52:00,
2013-09-11 09:57:00,72.0,61.7,29.16,SSE,158,2.0,8.0,70,0.00,,,0.00,meteohub,2013-09-11 14:57:00,
2013-09-11 10:02:00,72.3,61.2,29.16,SW,225,3.0,8.0,68,0.00,,,0.00,meteohub,2013-09-11 15:02:00,
2013-09-11 10:07:00,72.7,60.6,29.16,SW,225,3.0,7.0,66,0.00,,,0.00,meteohub,2013-09-11 15:07:00,
2013-09-11 10:12:00,72.9,60.4,29.16,SW,225,4.0,7.0,65,0.00,,,0.00,meteohub,2013-09-11 15:12:00,
2013-09-11 10:17:00,73.6,61.5,29.16,SW,225,3.0,7.0,66,0.00,,,0.00,meteohub,2013-09-11 15:17:00,
2013-09-11 10:22:00,73.9,61.5,29.19,WSW,248,1.0,6.0,65,0.00,,,0.00,meteohub,2013-09-11 15:22:00,
2013-09-11 10:27:00,74.1,59.9,29.19,WSW,248,2.0,6.0,61,0.00,,,0.00,meteohub,2013-09-11 15:27:00,
2013-09-11 10:32:00,74.5,60.6,29.19,SSW,202,3.0,6.0,62,0.00,,,0.00,meteohub,2013-09-11 15:32:00,
2013-09-11 10:37:00,74.3,59.0,29.16,WSW,248,3.0,6.0,59,0.00,,,0.00,meteohub,2013-09-11 15:37:00,
2013-09-11 10:42:00,74.8,59.5,29.16,WNW,292,2.0,6.0,59,0.00,,,0.00,meteohub,2013-09-11 15:42:00,
2013-09-11 10:47:00,75.6,60.6,29.16,NNW,338,2.0,6.0,60,0.00,,,0.00,meteohub,2013-09-11 15:47:00,
2013-09-11 10:52:00,75.9,59.5,29.19,SSW,202,2.0,4.0,57,0.00,,,0.00,meteohub,2013-09-11 15:52:00,
2013-09-11 10:57:00,76.8,59.9,29.19,NE,45,2.0,4.0,56,0.00,,,0.00,meteohub,2013-09-11 15:57:00,
2013-09-11 11:02:00,77.0,58.6,29.19,NW,315,0.0,4.0,53,0.00,,,0.00,meteohub,2013-09-11 16:02:00,
2013-09-11 11:07:00,77.2,58.3,29.16,West,270,3.0,4.0,52,0.00,,,0.00,meteohub,2013-09-11 16:07:00,
2013-09-11 11:12:00,77.7,58.1,29.16,SE,135,1.0,8.0,51,0.00,,,0.00,meteohub,2013-09-11 16:12:00,
2013-09-11 11:17:00,78.3,58.1,29.16,NE,45,6.0,8.0,50,0.00,,,0.00,meteohub,2013-09-11 16:17:00,
2013-09-11 11:22:00,78.6,58.5,29.16,SW,225,2.0,6.0,50,0.00,,,0.00,meteohub,2013-09-11 16:22:00,
2013-09-11 11:27:00,79.0,58.3,29.16,WNW,292,1.0,6.0,49,0.00,,,0.00,meteohub,2013-09-11 16:27:00,
2013-09-11 11:32:00,79.3,57.9,29.16,NNE,22,1.0,6.0,48,0.00,,,0.00,meteohub,2013-09-11 16:32:00,
2013-09-11 11:37:00,79.7,58.3,29.16,SSW,202,2.0,8.0,48,0.00,,,0.00,meteohub,2013-09-11 16:37:00,
2013-09-11 11:42:00,80.4,59.0,29.16,South,180,0.0,8.0,48,0.00,,,0.00,meteohub,2013-09-11 16:42:00,
2013-09-11 11:47:00,81.5,58.6,29.16,North,0,3.0,8.0,46,0.00,,,0.00,meteohub,2013-09-11 16:47:00,
2013-09-11 11:52:00,81.9,58.5,29.16,West,270,1.0,6.0,45,0.00,,,0.00,meteohub,2013-09-11 16:52:00,
2013-09-11 11:57:00,82.9,58.8,29.16,SW,225,2.0,4.0,44,0.00,,,0.00,meteohub,2013-09-11 16:57:00,
2013-09-11 12:02:00,83.7,59.4,29.16,NNW,338,3.0,4.0,44,0.00,,,0.00,meteohub,2013-09-11 17:02:00,
2013-09-11 12:07:00,83.8,57.6,29.16,WSW,248,6.0,6.0,41,0.00,,,0.00,meteohub,2013-09-11 17:07:00,
2013-09-11 12:12:00,83.7,58.1,29.16,WSW,248,2.0,10.0,42,0.00,,,0.00,meteohub,2013-09-11 17:12:00,
2013-09-11 12:17:00,84.0,57.7,29.16,SW,225,3.0,10.0,41,0.00,,,0.00,meteohub,2013-09-11 17:17:00,
2013-09-11 12:22:00,84.4,58.1,29.16,NNE,22,4.0,8.0,41,0.00,,,0.00,meteohub,2013-09-11 17:22:00,
2013-09-11 12:27:00,84.9,58.6,29.16,NE,45,2.0,9.0,41,0.00,,,0.00,meteohub,2013-09-11 17:27:00,
2013-09-11 12:32:00,85.5,59.0,29.16,WNW,292,5.0,9.0,41,0.00,,,0.00,meteohub,2013-09-11 17:32:00,
2013-09-11 12:37:00,85.5,58.5,29.16,NNE,22,5.0,9.0,40,0.00,,,0.00,meteohub,2013-09-11 17:37:00,
2013-09-11 12:42:00,85.3,58.3,29.16,North,0,2.0,7.0,40,0.00,,,0.00,meteohub,2013-09-11 17:42:00,
2013-09-11 12:47:00,86.2,59.0,29.16,WSW,248,8.0,8.0,40,0.00,,,0.00,meteohub,2013-09-11 17:47:00,
2013-09-11 12:52:00,87.6,60.3,29.16,West,270,2.0,8.0,40,0.00,,,0.00,meteohub,2013-09-11 17:52:00,
2013-09-11 12:57:00,87.3,59.4,29.16,East,90,5.0,8.0,39,0.00,,,0.00,meteohub,2013-09-11 17:57:00,
2013-09-11 13:02:00,87.6,58.8,29.16,NNW,338,6.0,8.0,38,0.00,,,0.00,meteohub,2013-09-11 18:02:00,
2013-09-11 13:07:00,87.3,58.6,29.16,NE,45,5.0,6.0,38,0.00,,,0.00,meteohub,2013-09-11 18:07:00,
2013-09-11 13:12:00,86.4,57.7,29.16,West,270,2.0,7.0,38,0.00,,,0.00,meteohub,2013-09-11 18:12:00,
2013-09-11 13:17:00,86.2,57.6,29.16,WNW,292,3.0,7.0,38,0.00,,,0.00,meteohub,2013-09-11 18:17:00,
2013-09-11 13:22:00,86.0,58.1,29.16,SW,225,2.0,9.0,39,0.00,,,0.00,meteohub,2013-09-11 18:22:00,
2013-09-11 13:27:00,86.5,58.6,29.16,NNE,22,4.0,9.0,39,0.00,,,0.00,meteohub,2013-09-11 18:27:00,
2013-09-11 13:32:00,85.1,57.4,29.16,North,0,1.0,5.0,39,0.00,,,0.00,meteohub,2013-09-11 18:32:00,
2013-09-11 13:37:00,83.7,56.8,29.16,North,0,4.0,7.0,40,0.00,,,0.00,meteohub,2013-09-11 18:37:00,
2013-09-11 13:42:00,84.2,56.5,29.16,NW,315,2.0,8.0,39,0.00,,,0.00,meteohub,2013-09-11 18:42:00,
2013-09-11 13:47:00,85.8,58.6,29.16,NNW,338,2.0,8.0,40,0.00,,,0.00,meteohub,2013-09-11 18:47:00,
2013-09-11 13:52:00,84.4,55.9,29.19,NNE,22,4.0,8.0,38,0.00,,,0.00,meteohub,2013-09-11 18:52:00,
2013-09-11 13:57:00,86.0,55.2,29.19,WNW,292,3.0,6.0,35,0.00,,,0.00,meteohub,2013-09-11 18:57:00,
2013-09-11 14:02:00,87.1,56.8,29.19,NNE,22,7.0,7.0,36,0.00,,,0.00,meteohub,2013-09-11 19:02:00,
2013-09-11 14:07:00,87.1,56.8,29.19,NNE,22,2.0,10.0,36,0.00,,,0.00,meteohub,2013-09-11 19:07:00,
2013-09-11 14:12:00,86.4,55.4,29.19,NNE,22,3.0,10.0,35,0.00,,,0.00,meteohub,2013-09-11 19:12:00,
2013-09-11 14:17:00,85.3,54.5,29.19,NNE,22,10.0,10.0,35,0.00,,,0.00,meteohub,2013-09-11 19:17:00,
2013-09-11 14:22:00,86.4,54.7,29.16,WNW,292,3.0,10.0,34,0.00,,,0.00,meteohub,2013-09-11 19:22:00,
2013-09-11 14:27:00,86.7,54.1,29.16,NNW,338,3.0,10.0,33,0.00,,,0.00,meteohub,2013-09-11 19:27:00,
2013-09-11 14:32:00,86.9,54.3,29.16,North,0,2.0,11.0,33,0.00,,,0.00,meteohub,2013-09-11 19:32:00,
2013-09-11 14:37:00,86.5,53.2,29.19,NE,45,6.0,11.0,32,0.00,,,0.00,meteohub,2013-09-11 19:37:00,
2013-09-11 14:42:00,86.5,53.2,29.19,NE,45,4.0,11.0,32,0.00,,,0.00,meteohub,2013-09-11 19:42:00,
2013-09-11 14:47:00,87.1,54.5,29.19,East,90,2.0,9.0,33,0.00,,,0.00,meteohub,2013-09-11 19:47:00,
2013-09-11 14:52:00,87.4,54.9,29.19,NNW,338,3.0,9.0,33,0.00,,,0.00,meteohub,2013-09-11 19:52:00,
2013-09-11 14:57:00,87.8,55.0,29.19,NE,45,3.0,8.0,33,0.00,,,0.00,meteohub,2013-09-11 19:57:00,
2013-09-11 15:02:00,88.7,55.9,29.19,NNE,22,1.0,8.0,33,0.00,,,0.00,meteohub,2013-09-11 20:02:00,
2013-09-11 15:07:00,88.0,54.5,29.16,NNW,338,3.0,8.0,32,0.00,,,0.00,meteohub,2013-09-11 20:07:00,
2013-09-11 15:12:00,88.5,54.9,29.16,WNW,292,7.0,7.0,32,0.00,,,0.00,meteohub,2013-09-11 20:12:00,
2013-09-11 15:17:00,88.2,53.8,29.16,NE,45,1.0,7.0,31,0.00,,,0.00,meteohub,2013-09-11 20:17:00,
2013-09-11 15:22:00,88.2,53.8,29.16,North,0,3.0,7.0,31,0.00,,,0.00,meteohub,2013-09-11 20:22:00,
2013-09-11 15:27:00,88.3,53.1,29.16,North,0,4.0,7.0,30,0.00,,,0.00,meteohub,2013-09-11 20:27:00,
2013-09-11 15:32:00,87.1,52.7,29.16,NE,45,2.0,5.0,31,0.00,,,0.00,meteohub,2013-09-11 20:32:00,
2013-09-11 15:37:00,88.2,53.8,29.19,NNE,22,4.0,5.0,31,0.00,,,0.00,meteohub,2013-09-11 20:37:00,
2013-09-11 15:42:00,88.0,53.6,29.19,West,270,4.0,4.0,31,0.00,,,0.00,meteohub,2013-09-11 20:42:00,
2013-09-11 15:47:00,87.8,52.5,29.19,SE,135,2.0,4.0,30,0.00,,,0.00,meteohub,2013-09-11 20:47:00,
2013-09-11 15:52:00,87.6,53.2,29.19,NW,315,1.0,7.0,31,0.00,,,0.00,meteohub,2013-09-11 20:52:00,
2013-09-11 15:57:00,87.6,52.3,29.19,West,270,1.0,7.0,30,0.00,,,0.00,meteohub,2013-09-11 20:57:00,
2013-09-11 16:02:00,87.6,52.3,29.19,NNE,22,4.0,6.0,30,0.00,,,0.00,meteohub,2013-09-11 21:02:00,
2013-09-11 16:07:00,86.7,50.7,29.19,NE,45,5.0,6.0,29,0.00,,,0.00,meteohub,2013-09-11 21:07:00,
2013-09-11 16:12:00,87.3,52.0,29.19,WNW,292,4.0,8.0,30,0.00,,,0.00,meteohub,2013-09-11 21:12:00,
2013-09-11 16:17:00,86.9,51.8,29.19,NNE,22,6.0,8.0,30,0.00,,,0.00,meteohub,2013-09-11 21:17:00,
2013-09-11 16:22:00,87.1,52.0,29.16,ENE,68,2.0,7.0,30,0.00,,,0.00,meteohub,2013-09-11 21:22:00,
2013-09-11 16:27:00,87.1,52.0,29.16,NE,45,3.0,6.0,30,0.00,,,0.00,meteohub,2013-09-11 21:27:00,
2013-09-11 16:32:00,87.3,52.0,29.16,North,0,6.0,6.0,30,0.00,,,0.00,meteohub,2013-09-11 21:32:00,
2013-09-11 16:37:00,86.9,51.8,29.19,NE,45,1.0,6.0,30,0.00,,,0.00,meteohub,2013-09-11 21:37:00,
2013-09-11 16:42:00,87.6,52.3,29.19,SE,135,0.0,6.0,30,0.00,,,0.00,meteohub,2013-09-11 21:42:00,
2013-09-11 16:47:00,87.4,52.2,29.19,NW,315,1.0,6.0,30,0.00,,,0.00,meteohub,2013-09-11 21:47:00,
2013-09-11 16:52:00,86.5,51.4,29.19,North,0,4.0,6.0,30,0.00,,,0.00,meteohub,2013-09-11 21:52:00,
2013-09-11 16:57:00,87.1,52.0,29.19,ESE,112,2.0,6.0,30,0.00,,,0.00,meteohub,2013-09-11 21:57:00,
2013-09-11 17:02:00,87.6,52.3,29.19,North,0,3.0,6.0,30,0.00,,,0.00,meteohub,2013-09-11 22:02:00,
2013-09-11 17:07:00,87.1,52.0,29.16,WNW,292,2.0,4.0,30,0.00,,,0.00,meteohub,2013-09-11 22:07:00,
2013-09-11 17:12:00,88.0,52.7,29.16,NE,45,0.0,7.0,30,0.00,,,0.00,meteohub,2013-09-11 22:12:00,
2013-09-11 17:17:00,88.0,52.7,29.16,NE,45,2.0,7.0,30,0.00,,,0.00,meteohub,2013-09-11 22:17:00,
2013-09-11 17:22:00,87.6,52.3,29.16,ENE,68,4.0,6.0,30,0.00,,,0.00,meteohub,2013-09-11 22:22:00,
2013-09-11 17:27:00,88.0,52.7,29.16,NNE,22,2.0,3.0,30,0.00,,,0.00,meteohub,2013-09-11 22:27:00,
2013-09-11 17:32:00,87.3,52.0,29.16,NE,45,0.0,5.0,30,0.00,,,0.00,meteohub,2013-09-11 22:32:00,
2013-09-11 17:37:00,87.6,52.3,29.16,WNW,292,3.0,5.0,30,0.00,,,0.00,meteohub,2013-09-11 22:37:00,
2013-09-11 17:42:00,86.5,51.4,29.16,NNE,22,3.0,5.0,30,0.00,,,0.00,meteohub,2013-09-11 22:42:00,
2013-09-11 17:47:00,86.5,51.4,29.16,NNW,338,0.0,3.0,30,0.00,,,0.00,meteohub,2013-09-11 22:47:00,
2013-09-11 17:52:00,86.0,50.9,29.16,NNE,22,3.0,4.0,30,0.00,,,0.00,meteohub,2013-09-11 22:52:00,
2013-09-11 17:57:00,83.8,50.0,29.16,North,0,2.0,5.0,31,0.00,,,0.00,meteohub,2013-09-11 22:57:00,
2013-09-11 18:02:00,82.8,49.1,29.16,ENE,68,2.0,5.0,31,0.00,,,0.00,meteohub,2013-09-11 23:02:00,
2013-09-11 18:07:00,82.4,48.7,29.16,West,270,0.0,6.0,31,0.00,,,0.00,meteohub,2013-09-11 23:07:00,
2013-09-11 18:12:00,82.2,49.5,29.16,SSW,202,5.0,6.0,32,0.00,,,0.00,meteohub,2013-09-11 23:12:00,
2013-09-11 18:17:00,82.0,49.3,29.16,WSW,248,0.0,6.0,32,0.00,,,0.00,meteohub,2013-09-11 23:17:00,
2013-09-11 18:22:00,81.9,49.1,29.16,NE,45,0.0,5.0,32,0.00,,,0.00,meteohub,2013-09-11 23:22:00,
2013-09-11 18:27:00,81.1,48.6,29.16,NNW,338,2.0,5.0,32,0.00,,,0.00,meteohub,2013-09-11 23:27:00,
2013-09-11 18:32:00,80.8,48.2,29.16,NNE,22,3.0,4.0,32,0.00,,,0.00,meteohub,2013-09-11 23:32:00,
2013-09-11 18:37:00,80.6,48.0,29.16,WSW,248,0.0,4.0,32,0.00,,,0.00,meteohub,2013-09-11 23:37:00,
2013-09-11 18:42:00,80.4,48.7,29.16,WNW,292,0.0,3.0,33,0.00,,,0.00,meteohub,2013-09-11 23:42:00,
2013-09-11 18:47:00,79.9,48.2,29.16,West,270,1.0,4.0,33,0.00,,,0.00,meteohub,2013-09-11 23:47:00,
2013-09-11 18:52:00,79.5,47.8,29.16,SSW,202,0.0,4.0,33,0.00,,,0.00,meteohub,2013-09-11 23:52:00,
2013-09-11 18:57:00,79.2,48.4,29.16,South,180,0.0,4.0,34,0.00,,,0.00,meteohub,2013-09-11 23:57:00,
2013-09-11 19:02:00,78.6,48.7,29.16,South,180,0.0,4.0,35,0.00,,,0.00,meteohub,2013-09-12 00:02:00,
2013-09-11 19:08:00,78.3,48.4,29.16,South,180,0.0,0.0,35,0.00,,,0.00,meteohub,2013-09-12 00:08:00,
2013-09-11 19:13:00,77.4,48.4,29.16,South,180,0.0,0.0,36,0.00,,,0.00,meteohub,2013-09-12 00:13:00,
2013-09-11 19:18:00,76.8,48.6,29.16,South,180,0.0,0.0,37,0.00,,,0.00,meteohub,2013-09-12 00:18:00,
2013-09-11 19:23:00,76.3,48.2,29.13,South,180,0.0,0.0,37,0.00,,,0.00,meteohub,2013-09-12 00:23:00,
2013-09-11 19:28:00,75.7,47.7,29.13,South,180,0.0,0.0,37,0.00,,,0.00,meteohub,2013-09-12 00:28:00,
2013-09-11 19:33:00,75.4,48.0,29.13,South,180,0.0,0.0,38,0.00,,,0.00,meteohub,2013-09-12 00:33:00,
2013-09-11 19:38:00,74.8,47.5,29.16,South,180,0.0,0.0,38,0.00,,,0.00,meteohub,2013-09-12 00:38:00,
2013-09-11 19:43:00,74.5,47.8,29.16,South,180,0.0,0.0,39,0.00,,,0.00,meteohub,2013-09-12 00:43:00,
2013-09-11 19:48:00,74.1,47.7,29.16,SSW,202,0.0,0.0,39,0.00,,,0.00,meteohub,2013-09-12 00:48:00,
2013-09-11 19:54:00,74.1,48.2,29.16,SW,225,0.0,0.0,40,0.00,,,0.00,meteohub,2013-09-12 00:54:00,
2013-09-11 19:59:00,73.8,48.6,29.16,SW,225,0.0,0.0,41,0.00,,,0.00,meteohub,2013-09-12 00:59:00,
2013-09-11 20:04:00,73.6,48.4,29.16,SW,225,0.0,0.0,41,0.00,,,0.00,meteohub,2013-09-12 01:04:00,
2013-09-11 20:09:00,73.2,48.7,29.16,SW,225,0.0,0.0,42,0.00,,,0.00,meteohub,2013-09-12 01:09:00,
2013-09-11 20:14:00,72.9,49.1,29.16,SW,225,0.0,0.0,43,0.00,,,0.00,meteohub,2013-09-12 01:14:00,
2013-09-11 20:19:00,72.5,48.7,29.16,SW,225,0.0,0.0,43,0.00,,,0.00,meteohub,2013-09-12 01:19:00,
2013-09-11 20:24:00,72.3,48.6,29.16,SW,225,0.0,0.0,43,0.00,,,0.00,meteohub,2013-09-12 01:24:00,
2013-09-11 20:30:00,72.1,49.1,29.16,SW,225,0.0,0.0,44,0.00,,,0.00,meteohub,2013-09-12 01:30:00,
2013-09-11 20:35:00,71.8,48.7,29.16,SW,225,0.0,0.0,44,0.00,,,0.00,meteohub,2013-09-12 01:35:00,
2013-09-11 20:40:00,71.6,48.6,29.16,SW,225,0.0,0.0,44,0.00,,,0.00,meteohub,2013-09-12 01:40:00,
2013-09-11 20:45:00,71.4,48.9,29.16,SW,225,0.0,0.0,45,0.00,,,0.00,meteohub,2013-09-12 01:45:00,
2013-09-11 20:50:00,71.2,48.7,29.19,SW,225,0.0,0.0,45,0.00,,,0.00,meteohub,2013-09-12 01:50:00,
2013-09-11 20:55:00,71.1,49.3,29.19,SW,225,0.0,0.0,46,0.00,,,0.00,meteohub,2013-09-12 01:55:00,
2013-09-11 21:01:00,70.9,49.1,29.19,SW,225,0.0,0.0,46,0.00,,,0.00,meteohub,2013-09-12 02:01:00,
2013-09-11 21:06:00,70.7,49.5,29.19,SW,225,0.0,0.0,47,0.00,,,0.00,meteohub,2013-09-12 02:06:00,
2013-09-11 21:11:00,70.5,49.3,29.19,SW,225,0.0,0.0,47,0.00,,,0.00,meteohub,2013-09-12 02:11:00,
2013-09-11 21:16:00,70.3,49.8,29.19,SW,225,0.0,0.0,48,0.00,,,0.00,meteohub,2013-09-12 02:16:00,
2013-09-11 21:21:00,70.3,49.8,29.22,North,0,0.0,1.0,48,0.00,,,0.00,meteohub,2013-09-12 02:21:00,
2013-09-11 21:26:00,70.3,49.8,29.22,NNW,338,3.0,3.0,48,0.00,,,0.00,meteohub,2013-09-12 02:26:00,
2013-09-11 21:31:00,70.5,49.8,29.22,WSW,248,3.0,3.0,48,0.00,,,0.00,meteohub,2013-09-12 02:31:00,
2013-09-11 21:36:00,70.9,50.2,29.22,WNW,292,3.0,3.0,48,0.00,,,0.00,meteohub,2013-09-12 02:36:00,
2013-09-11 21:42:00,71.4,50.7,29.22,NNE,22,3.0,4.0,48,0.00,,,0.00,meteohub,2013-09-12 02:42:00,
2013-09-11 21:47:00,71.2,50.5,29.22,NNE,22,3.0,4.0,48,0.00,,,0.00,meteohub,2013-09-12 02:47:00,
2013-09-11 21:52:00,71.1,50.4,29.22,NNE,22,2.0,4.0,48,0.00,,,0.00,meteohub,2013-09-12 02:52:00,
2013-09-11 21:57:00,70.9,50.2,29.22,NNE,22,2.0,3.0,48,0.00,,,0.00,meteohub,2013-09-12 02:57:00,
2013-09-11 22:02:00,70.9,49.6,29.22,North,0,2.0,4.0,47,0.00,,,0.00,meteohub,2013-09-12 03:02:00,
2013-09-11 22:07:00,70.7,49.5,29.22,North,0,2.0,4.0,47,0.00,,,0.00,meteohub,2013-09-12 03:07:00,
2013-09-11 22:12:00,70.7,49.5,29.22,NNW,338,5.0,6.0,47,0.00,,,0.00,meteohub,2013-09-12 03:12:00,
2013-09-11 22:17:00,70.5,49.3,29.22,East,90,3.0,6.0,47,0.00,,,0.00,meteohub,2013-09-12 03:17:00,
2013-09-11 22:22:00,70.5,48.7,29.22,NNE,22,4.0,6.0,46,0.00,,,0.00,meteohub,2013-09-12 03:22:00,
2013-09-11 22:27:00,70.5,48.7,29.22,NE,45,6.0,8.0,46,0.00,,,0.00,meteohub,2013-09-12 03:27:00,
2013-09-11 22:32:00,70.5,48.2,29.22,NNW,338,5.0,8.0,45,0.00,,,0.00,meteohub,2013-09-12 03:32:00,
2013-09-11 22:37:00,70.5,48.2,29.19,NNE,22,3.0,8.0,45,0.00,,,0.00,meteohub,2013-09-12 03:37:00,
2013-09-11 22:42:00,70.3,48.0,29.19,NE,45,3.0,8.0,45,0.00,,,0.00,meteohub,2013-09-12 03:42:00,
2013-09-11 22:47:00,70.3,48.0,29.19,NNE,22,3.0,8.0,45,0.00,,,0.00,meteohub,2013-09-12 03:47:00,
2013-09-11 22:52:00,70.2,47.8,29.22,NNE,22,6.0,6.0,45,0.00,,,0.00,meteohub,2013-09-12 03:52:00,
2013-09-11 22:57:00,70.2,47.3,29.22,NNE,22,3.0,6.0,44,0.00,,,0.00,meteohub,2013-09-12 03:57:00,
2013-09-11 23:01:00,70.0,47.7,29.22,NNW,338,3.0,7.0,45,0.00,,,0.00,meteohub,2013-09-12 04:01:00,
2013-09-11 23:02:00,70.0,47.7,29.22,NNW,338,3.0,7.0,45,0.00,,,0.00,meteohub,2013-09-12 04:02:00,
2013-09-11 23:07:00,69.8,46.9,29.22,NNW,338,2.0,8.0,44,0.00,,,0.00,meteohub,2013-09-12 04:07:00,
2013-09-11 23:09:00,69.6,47.3,29.22,NNW,338,3.0,8.0,45,0.00,,,0.00,meteohub,2013-09-12 04:09:00,
2013-09-11 23:14:00,69.3,47.1,29.22,North,0,2.0,10.0,45,0.00,,,0.00,meteohub,2013-09-12 04:14:00,
2013-09-11 23:19:00,69.3,47.1,29.22,NE,45,3.0,10.0,45,0.00,,,0.00,meteohub,2013-09-12 04:19:00,
2013-09-11 23:24:00,68.9,46.8,29.22,WNW,292,2.0,10.0,45,0.00,,,0.00,meteohub,2013-09-12 04:24:00,
2013-09-11 23:30:00,68.7,46.6,29.22,North,0,3.0,7.0,45,0.00,,,0.00,meteohub,2013-09-12 04:30:00,
2013-09-11 23:35:00,68.7,46.6,29.22,North,0,3.0,3.0,45,0.00,,,0.00,meteohub,2013-09-12 04:35:00,
2013-09-11 23:40:00,68.4,46.2,29.22,North,0,3.0,3.0,45,0.00,,,0.00,meteohub,2013-09-12 04:40:00,
2013-09-11 23:45:00,68.2,46.0,29.22,North,0,3.0,3.0,45,0.00,,,0.00,meteohub,2013-09-12 04:45:00,
2013-09-11 23:50:00,68.2,46.0,29.22,North,0,3.0,3.0,45,0.00,,,0.00,meteohub,2013-09-12 04:50:00,
2013-09-11 23:55:00,68.0,45.9,29.22,NNE,22,7.0,7.0,45,0.00,,,0.00,meteohub,2013-09-12 04:55:00,